www.pogodaiklimat.ru

Погода и климат >> Архив погоды >> Индия >> Bhagalpur


ПОГОДА в Bhagalpur

  • Прогноз погоды в Bhagalpur
  • Монитор погоды в Bhagalpur
  • Климат города

АРХИВ ПОГОДЫ в Bhagalpur

Время (UTC), дата Ветер
(напр.,м/с)
 
Видим.   Явления Облачность Т
(С)
Тd
(С)
f
(%)
Тe
(С)
Тes
(С)
Комфортность P
(гПа)
Po
(гПа)
Тmin
(С)
Tmax
(С)
R
(мм)
R24
(мм)
S
(см)
03 8.08 В 1 2000 м мгла 9/5 540 м
[Sc diur, vesp Ac trans]
+28.8 +25.7 83 +43 +46 опасность
перегрева
1002.4 1002.0 +25.6 1
06 8.08 В 1 2000 м мгла 9/6 540 м
[Cb calv Ac trans]
+32.4 +26.3 70 +49 +54 опасность
перегрева
1002.1 1002.0
09 8.08 В 1 2000 м мгла 8/5 540 м
[Sc diur, vesp Ac trans]
+33.6 +27.3 70 +53 +57 опасность
перегрева
1000.8 1001.0
12 8.08 штиль 0 2000 м мгла 8/6 540 м
[Sc diur, vesp Ac trans]
+32.6 +26.5 70 +49 +49 опасность
перегрева
1000.0 1000.0 +33.9
15 8.08 штиль 0 2000 м мгла 6/3 540 м
[Sc Ac trans]
+30.6 +27.0 81 +48 +48 опасность
перегрева
1001.9 1002.0
18 8.08 В 2 2000 м мгла 8/4 540 м
[Sc Ac trans]
+29.2 +26.6 86 +45 +45 опасность
перегрева
1003.2 1003.0
21 8.08 В 2 2000 м мгла 9/5 540 м
[Sc Ac trans]
+29.0 +26.2 85 +44 +44 опасность
перегрева
1002.7 1003.0
00 9.08 штиль 0 2000 м мгла 9/5 540 м
[Cb calv Ac trans]
+28.0 +26.6 92 +43 +43 опасность
перегрева
1003.3 1003.0
03 9.08 ЮВ 2 2000 м мгла 8/5 540 м
[Sc diur, vesp Ac trans]
+29.6 +26.0 81 +44 +48 опасность
перегрева
1004.7 1005.0 +26.6
06 9.08 В 2 2000 м мгла 9/6 540 м
[Sc diur, vesp Ac trans]
+34.6 +26.9 64 +52 +57 опасность
перегрева
1004.0 1004.0
09 9.08 В 2 4000 м мгла 9/6 600 м
[Sc diur, vesp Ac trans]
+36.0 +27.2 61 +55 +57 опасность
перегрева
1002.3 1002.0
12 9.08 штиль 0 2000 м мгла 9/6 540 м
[Cb calv Ac trans]
+34.0 +27.1 67 +52 +52 опасность
перегрева
1001.7 1002.0 +36.0
15 9.08 штиль 0 2000 м мгла 6/4 600 м
[Sc Ac trans]
+31.6 +27.5 79 +51 +51 опасность
перегрева
1002.9 1003.0
18 9.08 штиль 0 2000 м мгла 8/5 540 м
[Sc Ac trans]
+30.4 +27.1 83 +48 +48 опасность
перегрева
1003.5 1004.0
21 9.08 штиль 0 2000 м мгла 8/6 540 м
[Cb calv Ac trans]
+29.6 +26.5 83 +45 +45 опасность
перегрева
1003.0 1003.0
00 10.08 штиль 0 2000 м мгла 8/5 540 м
[Cb calv Ac trans]
+29.0 +27.1 90 +46 +46 опасность
перегрева
1003.0 1003.0
03 10.08 штиль 0 2000 м мгла 9/8 540 м
[Cb calv Ac trans]
+31.0 +28.3 86 +52 +54 опасность
перегрева
1003.2 1003.0 +27.5
06 10.08 штиль 0 2000 м мгла 9/6 540 м
[Sc diur, vesp Ac trans]
+32.6 +28.0 77 +53 +60 опасность
перегрева
1003.3 1003.0
09 10.08 штиль 0 2000 м мгла 10/5 540 м
[Cb calv Ac trans]
+35.0 +27.9 67 +56 +59 опасность
перегрева
1000.6 1001.0
12 10.08 штиль 0 2000 м мгла 8/6 540 м
[Sc diur, vesp Ac trans]
+34.0 +28.3 72 +55 +56 опасность
перегрева
999.5 1000.0 +35.6
15 10.08 штиль 0 2000 м мгла 5/3 540 м
[Sc Ac trans]
+31.8 +28.5 83 +54 +54 опасность
перегрева
1000.6 1001.0
18 10.08 штиль 0 2000 м мгла 6/4 540 м
[Sc Ac trans]
+31.0 +28.3 86 +52 +52 опасность
перегрева
1001.2 1001.0
21 10.08 штиль 0 2000 м мгла 6/4 540 м
[Sc Ac trans]
+30.4 +27.9 87 +50 +50 опасность
перегрева
1000.4 1000.0
00 11.08 штиль 0 2000 м мгла 6/4 540 м
[Sc Ac trans]
+29.6 +28.0 91 +49 +49 опасность
перегрева
999.4 999.0
03 11.08 штиль 0 2000 м мгла 10/5 540 м
[Sc Ac trans]
+30.8 +27.8 84 +50 +53 опасность
перегрева
1000.6 1001.0 +28.0
06 11.08 штиль 0 2000 м мгла 10/6 540 м
[Cb calv As op]
+33.4 +28.5 76 +56 +58 опасность
перегрева
1000.4 1000.0
09 11.08 штиль 0 2000 м мгла 9/6 540 м
[Cb calv Ac trans]
+33.6 +28.7 76 +57 +60 опасность
перегрева
998.3 998.0
12 11.08 штиль 0 2000 м мгла 9/6 540 м
[Cb calv Ac trans]
+31.8 +27.4 78 +51 +51 опасность
перегрева
997.1 997.0 +34.0
15 11.08 штиль 0 2000 м зарница {гроза} 10/8 540 м
[Cb calv As op]
+30.6 +27.0 81 +48 +48 опасность
перегрева
999.2 999.0
18 11.08 штиль 0 2000 м зарница 9/6 540 м
[Cb calv Ac As]
+30.0 +27.2 85 +48 +48 опасность
перегрева
998.8 999.0
21 11.08 штиль 0 2000 м зарница 9/6 540 м
[Cb calv Ac As]
+29.4 +26.9 86 +46 +46 опасность
перегрева
998.0 998.0
00 12.08 штиль 0 2000 м гроза без осадков {дождь} 10/8 540 м
[Cb calv As op]
+29.4 +28.0 92 +49 +49 опасность
перегрева
997.9 998.0 0.7
03 12.08 штиль 0 2000 м слабый дождь {гроза} 10/8 450 м
[Cb cap As op]
+29.2 +28.1 94 +49 +49 опасность
перегрева
999.3 999.0 +27.8 0.7
06 12.08 ЮВ 1 2000 м мгла {гроза, дождь} 10/8 450 м
[Cb calv As op]
+29.2 +27.0 88 +46 +47 опасность
перегрева
999.0 999.0
09 12.08 В 1 2000 м мгла 10/6 540 м
[Sc Ac As]
+31.4 +28.1 83 +52 +54 опасность
перегрева
997.1 997.0
12 12.08 штиль 0 2000 м мгла 6/4 600 м
[Sc Ac trans]
+31.6 +28.3 83 +53 +53 опасность
перегрева
996.1 996.0 +32.6
15 12.08 штиль 0 2000 м мгла 6/3 600 м
[Sc Ac trans]
+30.6 +28.4 88 +52 +52 опасность
перегрева
998.0 998.0
18 12.08 штиль 0 2000 м мгла 8/4 600 м
[Sc Ac trans]
+29.8 +27.9 90 +49 +49 опасность
перегрева
998.6 999.0
21 12.08 штиль 0 2000 м мгла 8/4 540 м
[Sc Ac trans]
+29.2 +27.5 91 +47 +47 опасность
перегрева
998.0 998.0
00 13.08 штиль 0 2000 м мгла 9/5 540 м
[Sc Ac trans]
+28.6 +26.9 91 +45 +45 опасность
перегрева
998.1 998.0
03 13.08 штиль 0 2000 м мгла 9/6 540 м
[Sc diur, vesp Ac trans]
+30.0 +27.5 86 +48 +51 опасность
перегрева
1000.2 1000.0 +26.8
06 13.08 В 1 2000 м мгла 9/5 540 м
[Sc Ac trans]
+33.8 +27.8 71 +54 +60 опасность
перегрева
999.4 999.0
09 13.08 В 1 2000 м мгла 9/6 540 м
[Sc diur, vesp Ac trans]
+34.6 +27.8 68 +55 +58 опасность
перегрева
998.4 998.0
12 13.08 штиль 0 2000 м мгла {гроза, дождь} 9/6 540 м
[Cb calv Ac trans]
+30.0 +25.8 78 +45 +45 опасность
перегрева
997.7 998.0 +34.8 0.2
15 13.08 штиль 0 2000 м мгла 8/5 540 м
[Cb calv Ac trans]
+29.8 +27.3 86 +47 +47 опасность
перегрева
999.1 999.0 0.2
18 13.08 штиль 0 2000 м мгла 8/5 540 м
[Cb calv Ac trans]
+29.2 +27.0 88 +46 +46 опасность
перегрева
1000.1 1000.0 0.2
21 13.08 штиль 0 2000 м мгла 8/6 540 м
[Cb calv Ac trans]
+28.8 +26.9 89 +45 +45 опасность
перегрева
999.5 1000.0 0.2
00 14.08 штиль 0 2000 м мгла 9/6 540 м
[Cb calv Ac trans]
+28.6 +26.9 91 +45 +45 опасность
перегрева
999.2 999.0 0.2
03 14.08 штиль 0 2000 м мгла 8/6 540 м
[Sc diur, vesp Ac trans]
+31.2 +28.2 84 +52 +56 опасность
перегрева
999.8 1000.0 +27.3 0.2
06 14.08 СВ 1 2000 м мгла 6/5 540 м
[Sc diur, vesp Ac trans]
+36.0 +26.6 59 +53 +65 опасность
перегрева
998.9 999.0
09 14.08 штиль 0 4000 м мгла 8/5 600 м
[Sc diur, vesp Ac trans]
+36.4 +27.7 61 +56 +61 опасность
перегрева
997.6 998.0
12 14.08 В 2 2000 м мгла 8/5 600 м
[Sc diur, vesp Ac trans]
+35.0 +27.6 66 +55 +55 опасность
перегрева
996.5 997.0 +36.6
15 14.08 штиль 0 2000 м мгла 5/3 600 м
[Sc Ac trans]
+31.0 +26.8 78 +48 +48 опасность
перегрева
999.0 999.0
18 14.08 штиль 0 2000 м мгла 5/3 600 м
[Sc Ac trans]
+30.8 +28.3 87 +52 +52 опасность
перегрева
999.2 999.0
21 14.08 штиль 0 2000 м мгла 5/3 600 м
[Sc Ac trans]
+30.4 +27.9 87 +50 +50 опасность
перегрева
998.3 998.0
00 15.08 штиль 0 2000 м мгла 6/4 600 м
[Sc Ac trans]
+30.0 +28.8 93 +52 +52 опасность
перегрева
999.7 1000.0

 

Местоположение метеостанции Bhagalpur (Bihar, Индия): широта 25.23 долгота 86.95 высота над уровнем моря 49 м.

В архиве по умолчанию представлена погода в Bhagalpur за последнюю неделю. Архивные данные за месяц целиком и за предыдущие месяцы, начиная с января 2011 года, Вы можете получить, выбрав интересующий диапазон дат из раскрывающегося списка и нажав кнопку "Ввод!".


*Определитесь, кто Вы:
робот инопланетянин человек

Внимание! Время в таблицах - всемирное. Для получения местного времени необходимо прибавить поправку, которая в Bhagalpur равна 5.5 ч.

Смотрите также архив погоды в соседних городах и на ближайших метеорологических станциях:

Погода в Purnea (Bihar, Индия) (53 км)
Погода в Malda (West Bengal, Индия) (121 км)
Погода в Biratnagar (Непал) (142 км)
Погода в Badalgachhi (Бангладеш) (156 км)
Погода в Asansol (West Bengal, Индия) (172 км)
Погода в Dinajpur (Бангладеш) (180 км)
Погода в Baharampur (West Bengal, Индия) (181 км)
Погода в Balurghat (West Bengal, Индия) (184 км)
Погода в Dimla (Бангладеш) (187 км)
Погода в Patna (Bihar, Индия) (190 км)

Пояснения к столбцам:

Ветер - указаны скорость ветра в м/с - средняя за 10 мин, порывы в срок и между сроками (в фигурных скобках) и направление, откуда дует ветер: С - северный, СВ - северо-восточный, В - восточный, ЮВ - юго-восточный, Ю - южный, ЮЗ - юго-западный, З - западный, СЗ - северо-западный.
Видимость - горизонтальная дальность видимости в метрах или километрах. При видимости от 1 до 10 км при отсутствии осадков обычно наблюдается дымка, при ухудшении видимости до 1 км и менее - туман. В сухую погоду видимость может ухудшаться дымом, пылью или мглою.
Явления - указаны атмосферные явления, наблюдавшиеся в срок или в последний час перед сроком; фигурными скобками обозначены явления, наблюдавшиеся между сроками (за 1-3 часа до срока); квадратными скобками обозначены град или гололедные отложения с указанием их диаметра в мм.
Облачность - указаны через наклонную черту общая и нижняя облачность в баллах и высота нижней границы облаков в метрах; квадратными скобками обозначены формы облаков: Ci - перистые, Cs - перисто-слоистые, Cc - перисто-кучевые, Ac - высококучевые, As - высокослоистые, Sc - слоисто-кучевые, Ns - слоисто-дождевые, Cu - кучевые, Cb - кучево-дождевые. Подробнее классификацию облаков см. в Атласе облаков (PDF).
T - Температура воздуха - температура, измеренная на высоте 2 м над землей.
Td - Температура точки росы - температура, при понижении до которой содержащийся в воздухе водяной пар достигнет насыщения.
f - Относительная влажность воздуха - влажноcть воздуха, измеренная на высоте 2 м над землей.
Te - Эффективная температура - температура, которую ощущает одетый по сезону человек в тени. Характеристика душности погоды. При расчете учитывается влияние влажности воздуха и скорости ветра на теплоощущения человека.
Tes - Эффективная температура на солнце - температура, которую ощущает человек, с поправкой на солнечный нагрев. Характеристика знойности погоды. Зависит от высоты солнца над горизонтом, облачности и скорости ветра. Ночью, в пасмурную погоду, а также при ветре 12 м/с и более поправка равна нулю.
P - Атмосферное давление - приведенное к уровню моря атмосферное давление.
Po - Атмосферное давление - измеренное на уровне метеостанции атмосферное давление.
Tmin - Минимальная температура - минимум температуры воздуха на высоте 2 м над землей.
Tmax - Максимальная температура - максимум температуры воздуха на высоте 2 м над землей.
R - Количество осадков - Количество выпавших осадков за период времени, мм. При наведении курсора мыши на число - период времени, за который выпало указанное количество осадков.
R24 - Количество осадков - Количество выпавших осадков за 24 часа, мм.
S - Снежный покров - Высота снежного покрова, см. При наведении курсора мыши на число - состояние снежного покрова и степень покрытия местности в баллах.